Regional Weather Roundup
Issued by NWS

Home | Current Version | Previous Version | Graphics & Text | Print | Product List | Glossary On
Versions: 1 2 3 4 5 6 7 8 9 10 11 12 13 14 15 16 17 18 19 20 21 22 23 24 25 26 27 28 29 30 31 32 33 34 35 36 37 38 39 40 41 42 43 44 45 46 47 48 49 50
000
ASUS43 KLSX 132357
RWRMO

WEATHER SUMMARY FOR MISSOURI
NATIONAL WEATHER SERVICE SPRINGFIELD MO
600 PM CST WED DEC 13 2017

NOTE: "FAIR" INDICATES FEW OR NO CLOUDS BELOW 12,000 FEET WITH NO
       SIGNIFICANT WEATHER AND/OR OBSTRUCTIONS TO VISIBILITY.
       CURRENT SKY AND/OR WEATHER CONDITIONS ARE NOT AVAILABLE FOR
       CHILLICOTHE AND FARMINGTON.

MOZ001>031-035>038-043-044-053-054-140100-
...NORTHERN AND WESTERN MISSOURI...

CITY           SKY/WX    TMP DP  RH WIND       PRES   REMARKS
KANSAS CTY INT CLEAR     47  28  47 NW9       29.82R
6HR MIN TEMP:  46; 6HR MAX TEMP:  59;

LEE`S SUMMIT   CLEAR     51  28  41 NW13      29.81R
6HR MIN TEMP:  51; 6HR MAX TEMP:  60;

ST JOSEPH      CLEAR     47  30  51 NW15      29.84R
6HR MIN TEMP:  45; 6HR MAX TEMP:  58;

CHILLICOTHE      N/A     46  29  51 NW8G22    29.81R
6HR MIN TEMP:  46; 6HR MAX TEMP:  58;


$$
MOZ066>068-077>081-088>096-101>105-140100-
...SOUTHWEST MISSOURI...

CITY           SKY/WX    TMP DP  RH WIND       PRES   REMARKS
SPRINGFIELD    CLEAR     52  27  38 W7        29.79R
6HR MIN TEMP:  52; 6HR MAX TEMP:  58;

JOPLIN         CLEAR     52  28  39 W7        29.84R
6HR MIN TEMP:  51; 6HR MAX TEMP:  62;

BRANSON        CLEAR     52  25  35 W3        29.81S

$$
MOZ032>034-039>042-045>050-055>058-069>072-140100-
...CENTRAL MISSOURI...

CITY           SKY/WX    TMP DP  RH WIND       PRES   REMARKS
COLUMBIA       NOT AVBL
JEFFERSON CITY CLEAR     51  26  37 NW7       29.74R
6HR MIN TEMP:  51; 6HR MAX TEMP:  60;

ROLLA          CLEAR     51  29  42 NW13G23   29.74R
6HR MIN TEMP:  51; 6HR MAX TEMP:  58;

SEDALIA        CLEAR     51  28  41 NW14      29.79R
6HR MIN TEMP:  51; 6HR MAX TEMP:  61;

WARRENSBURG    CLEAR     50  27  40 NW9       29.80R

$$
MOZ051-052-059>065-140100-
...EAST CENTRAL MISSOURI...

CITY           SKY/WX    TMP DP  RH WIND       PRES   REMARKS
ST LOUIS INTL  CLEAR     51  30  44 NW20G26   29.67R
6HR MIN TEMP:  50; 6HR MAX TEMP:  58;


$$
MOZ072>076-082>087-097>100-106>115-140100-
...SOUTH CENTRAL AND SOUTHEAST MISSOURI...

CITY           SKY/WX    TMP DP  RH WIND       PRES   REMARKS
CAPE GIRARDEAU CLEAR     42  26  53 SW8       29.69R
6HR MIN TEMP:  40; 6HR MAX TEMP:  52;

POPLAR BLUFF   CLEAR     53  26  35 SW5       29.72R
6HR MIN TEMP:  49; 6HR MAX TEMP:  59;

WEST PLAINS    CLEAR     50  25  37 W7        29.77R
6HR MIN TEMP:  50; 6HR MAX TEMP:  61;


$$



USA.gov is the U.S. government's official web portal to all federal, state and local government web resources and services.